Flag for Norway Weather past 2 weeks in Vennesla, Norway

Now
37 °F

Fog.


Feels Like: 37 °F
Forecast: 33 / 40 °F
Wind: No wind

Location: Kristiansand / Kjevik

Current Time: Jan 26, 2015 at 9:33:03 AM

Latest Report: Jan 26, 2015 at 8:50 AM


Visibility: 0 mi

Pressure: 29.74 "Hg

Humidity: 93%

Dew point: 36 °F

Location of VenneslaLocation

Historic Weather in Vennesla — Graph

°F

Vennesla temperature yesterday

Maximum temperature yesterday: 39 °F (at 11:20 PM)
Minimum temperature yesterday: 19 °F (at 8:50 AM)
Average temperature yesterday: 28 °F

Past Weeks' High & Low Weather Summary

 TemperatureHumidityPressure
High46 °F (Jan 12, 1:50 PM)100% (Jan 14, 9:50 AM)30.24 "Hg (Jan 14, 9:50 AM)
Low16 °F (Jan 23, 3:50 AM)61% (Jan 11, 1:50 PM)28.80 "Hg (Jan 16, 4:50 AM)
Average34 °F87%29.65 "Hg
* Reported Jan 11 8:20 AM — Jan 26 8:20 AM, Vennesla, Weather by CustomWeather, © 2014

Note: Actual official high and low records may vary slightly from our data, if they occured in-between our weather recording intervals... More about our weather records

Advertising

Vennesla weather history for previous 24 hours

 ConditionsComfort  
Time TempWeatherWind HumidityBarometerVisibility
8:20 AM
Jan 26
36 °FDrizzle. Fog.1 mph100%29.74 "Hg1 mi
7:50 AM39 °FPartly cloudy.No wind100%29.74 "Hg3 mi
7:20 AM39 °FChilly.3 mph100%29.77 "Hg4 mi
6:50 AM39 °FDrizzle. Low clouds.6 mph100%29.77 "Hg4 mi
6:20 AM39 °FDrizzle. Fog.7 mph100%29.77 "Hg4 mi
5:50 AM39 °FChilly.7 mph100%29.77 "Hg2 mi
5:20 AM39 °FFog.9 mph100%29.80 "Hg0 mi
4:50 AM39 °FFog.12 mph100%29.80 "Hg1 mi
4:20 AM39 °FLight rain. Mostly cloudy.12 mph100%29.83 "Hg1 mi
3:50 AM39 °FDrizzle. Low clouds.14 mph100%29.86 "Hg1 mi
3:20 AM39 °FFog.13 mph100%29.86 "Hg2 mi
2:50 AM39 °FDrizzle. Low clouds.12 mph100%29.89 "Hg3 mi
2:20 AM39 °FDrizzle. Low clouds.14 mph100%29.92 "Hg4 mi
1:50 AM39 °FLow clouds.15 mph100%29.92 "Hg3 mi
1:20 AM39 °FDrizzle. Low clouds.14 mph100%29.95 "Hg2 mi
12:50 AM39 °FLight rain. Mostly cloudy.12 mph93%29.95 "Hg2 mi
12:20 AM39 °FFog.15 mph100%29.98 "Hg2 mi
11:50 PM
Jan 25
39 °FLow clouds.13 mph100%30.01 "Hg5 mi
11:20 PM39 °FPassing clouds.9 mph93%30.01 "HgN/A
10:50 PM34 °FDrizzle. Fog.1 mph93%30.04 "Hg2 mi
10:20 PM32 °FLight freezing rain. Ice fog.2 mph93%30.04 "Hg1 mi
9:50 PM32 °FLight freezing rain. Fog.5 mph93%30.07 "Hg4 mi
9:20 PM32 °FLight freezing rain. Light fog.5 mph93%30.07 "Hg5 mi
8:50 PM32 °FLight freezing rain. Light fog.3 mph93%30.09 "Hg4 mi
8:20 PM32 °FLight freezing rain. Passing clouds.5 mph93%30.09 "Hg4 mi
7:50 PM30 °FLight freezing rain. Ice fog.5 mph100%30.09 "Hg2 mi
7:20 PM30 °FPassing clouds.6 mph100%30.09 "HgN/A
6:50 PM30 °FLight freezing rain. Partly cloudy.3 mph93%30.09 "HgN/A
6:20 PM30 °FLight freezing rain. Ice fog.5 mph93%30.12 "Hg4 mi
5:50 PM30 °FPartly cloudy.5 mph93%30.12 "HgN/A
5:20 PM30 °FPassing clouds.5 mph93%30.09 "HgN/A
4:50 PM30 °FClear.6 mph93%30.12 "Hg10 mi
4:20 PM30 °FSunny.6 mph93%30.12 "Hg10 mi
3:50 PM30 °FSunny.3 mph93%30.12 "Hg10 mi
3:20 PM32 °FSunny.2 mph87%30.12 "Hg10 mi
2:50 PM32 °FSunny.2 mph87%30.12 "Hg10 mi
2:20 PM32 °FSunny.2 mph80%30.12 "Hg10 mi
1:50 PM32 °FSunny.3 mph87%30.12 "Hg10 mi
1:20 PM30 °FSunny.2 mph86%30.12 "Hg10 mi
12:50 PM32 °FSunny.1 mph80%30.15 "Hg10 mi
12:20 PM28 °FSunny.3 mph86%30.12 "Hg10 mi
11:50 AM27 °FPassing clouds.3 mph86%30.15 "HgN/A
11:20 AM27 °FSunny.3 mph86%30.15 "Hg10 mi
10:50 AM23 °FSunny.6 mph93%30.15 "Hg10 mi
10:20 AM23 °FSunny.6 mph93%30.12 "Hg10 mi
9:50 AM23 °FSunny.6 mph93%30.12 "Hg10 mi
9:20 AM21 °FSunny.6 mph93%30.12 "Hg10 mi
Weather by CustomWeather, © 2014

See weather overviewHow to use our weather pages